Time,TemperatureF,DewpointF,PressureIn,WindDirection,WindDirectionDegrees,WindSpeedMPH,WindSpeedGustMPH,Humidity,HourlyPrecipIn,Conditions,Clouds,dailyrainin,SoftwareType,DateUTC
2013-07-20 00:00:00,80.4,52.5,-100.00,North,-999,0.0,0.0,38,0.00,,,-99.99,FreeWX-Wi 1.01,2013-07-20 04:00:00,
2013-07-20 00:09:00,80.2,53.1,-100.00,North,-999,0.0,0.0,39,0.00,,,-99.99,FreeWX-Wi 1.01,2013-07-20 04:09:00,
2013-07-20 00:20:00,80.2,53.1,-100.00,North,-999,0.0,0.0,39,0.00,,,-99.99,FreeWX-Wi 1.01,2013-07-20 04:20:00,
2013-07-20 00:29:00,80.1,52.9,-100.00,North,-999,0.0,0.0,39,0.00,,,-99.99,FreeWX-Wi 1.01,2013-07-20 04:29:00,
2013-07-20 00:39:00,80.1,52.9,-100.00,North,-999,0.0,0.0,39,0.00,,,-99.99,FreeWX-Wi 1.01,2013-07-20 04:39:00,
2013-07-20 00:51:00,79.9,52.7,-100.00,North,-999,0.0,0.0,39,0.00,,,-99.99,FreeWX-Wi 1.01,2013-07-20 04:51:00,
2013-07-20 01:00:00,79.7,52.5,-100.00,North,-999,0.0,0.0,39,0.00,,,-99.99,FreeWX-Wi 1.01,2013-07-20 05:00:00,
2013-07-20 01:10:00,79.7,52.5,-100.00,North,-999,0.0,0.0,39,0.00,,,-99.99,FreeWX-Wi 1.01,2013-07-20 05:10:00,
2013-07-20 01:21:00,79.5,52.3,-100.00,North,-999,0.0,0.0,39,0.00,,,-99.99,FreeWX-Wi 1.01,2013-07-20 05:21:00,
2013-07-20 01:31:00,79.3,52.9,-100.00,North,-999,0.0,0.0,40,0.00,,,-99.99,FreeWX-Wi 1.01,2013-07-20 05:31:00,
2013-07-20 01:41:00,79.3,52.9,-100.00,North,-999,0.0,0.0,40,0.00,,,-99.99,FreeWX-Wi 1.01,2013-07-20 05:41:00,
2013-07-20 01:51:00,79.2,53.4,-100.00,North,-999,0.0,0.0,41,0.00,,,-99.99,FreeWX-Wi 1.01,2013-07-20 05:51:00,
2013-07-20 02:00:00,79.0,53.2,-100.00,North,-999,0.0,0.0,41,0.00,,,-99.99,FreeWX-Wi 1.01,2013-07-20 06:00:00,
2013-07-20 02:10:00,78.6,53.6,-100.00,North,-999,0.0,0.0,42,0.00,,,-99.99,FreeWX-Wi 1.01,2013-07-20 06:10:00,
2013-07-20 02:21:00,78.4,54.1,-100.00,North,-999,0.0,0.0,43,0.00,,,-99.99,FreeWX-Wi 1.01,2013-07-20 06:21:00,
2013-07-20 02:30:00,78.3,54.5,-100.00,North,-999,0.0,0.0,44,0.00,,,-99.99,FreeWX-Wi 1.01,2013-07-20 06:30:00,
2013-07-20 02:41:00,78.1,54.3,-100.00,North,-999,0.0,0.0,44,0.00,,,-99.99,FreeWX-Wi 1.01,2013-07-20 06:41:00,
2013-07-20 02:51:00,77.9,54.1,-100.00,North,-999,0.0,0.0,44,0.00,,,-99.99,FreeWX-Wi 1.01,2013-07-20 06:51:00,
2013-07-20 03:01:00,77.7,54.7,-100.00,North,-999,0.0,0.0,45,0.00,,,-99.99,FreeWX-Wi 1.01,2013-07-20 07:01:00,
2013-07-20 03:10:00,77.5,54.5,-100.00,North,-999,0.0,0.0,45,0.00,,,-99.99,FreeWX-Wi 1.01,2013-07-20 07:10:00,
2013-07-20 03:21:00,77.4,54.3,-100.00,North,-999,0.0,0.0,45,0.00,,,-99.99,FreeWX-Wi 1.01,2013-07-20 07:21:00,
2013-07-20 03:31:00,77.2,54.1,-100.00,North,-999,0.0,0.0,45,0.00,,,-99.99,FreeWX-Wi 1.01,2013-07-20 07:31:00,
2013-07-20 03:41:00,77.0,54.0,-100.00,North,-999,0.0,0.0,45,0.00,,,-99.99,FreeWX-Wi 1.01,2013-07-20 07:41:00,
2013-07-20 03:50:00,77.0,54.7,-100.00,North,-999,0.0,0.0,46,0.00,,,-99.99,FreeWX-Wi 1.01,2013-07-20 07:50:00,
2013-07-20 04:00:00,76.8,54.5,-100.00,North,-999,0.0,0.0,46,0.00,,,-99.99,FreeWX-Wi 1.01,2013-07-20 08:00:00,
2013-07-20 04:11:00,76.6,54.3,-100.00,North,-999,0.0,0.0,46,0.00,,,-99.99,FreeWX-Wi 1.01,2013-07-20 08:11:00,
2013-07-20 04:21:00,76.6,54.9,-100.00,North,-999,0.0,0.0,47,0.00,,,-99.99,FreeWX-Wi 1.01,2013-07-20 08:21:00,
2013-07-20 04:31:00,76.5,54.7,-100.00,North,-999,0.0,0.0,47,0.00,,,-99.99,FreeWX-Wi 1.01,2013-07-20 08:31:00,
2013-07-20 04:40:00,76.5,54.7,-100.00,North,-999,0.0,0.0,47,0.00,,,-99.99,FreeWX-Wi 1.01,2013-07-20 08:40:00,
2013-07-20 04:51:00,76.3,54.5,-100.00,North,-999,0.0,0.0,47,0.00,,,-99.99,FreeWX-Wi 1.01,2013-07-20 08:51:00,
2013-07-20 05:01:00,75.9,54.9,-100.00,North,-999,0.0,0.0,48,0.00,,,-99.99,FreeWX-Wi 1.01,2013-07-20 09:01:00,
2013-07-20 05:11:00,75.7,54.7,-100.00,North,-999,0.0,0.0,48,0.00,,,-99.99,FreeWX-Wi 1.01,2013-07-20 09:11:00,
2013-07-20 05:22:00,75.7,55.2,-100.00,North,-999,0.0,0.0,49,0.00,,,-99.99,FreeWX-Wi 1.01,2013-07-20 09:22:00,
2013-07-20 05:32:00,75.6,55.0,-100.00,North,-999,0.0,0.0,49,0.00,,,-99.99,FreeWX-Wi 1.01,2013-07-20 09:32:00,
2013-07-20 05:42:00,75.4,55.4,-100.00,North,-999,0.0,0.0,50,0.00,,,-99.99,FreeWX-Wi 1.01,2013-07-20 09:42:00,
2013-07-20 05:52:00,75.4,55.4,-100.00,North,-999,0.0,0.0,50,0.00,,,-99.99,FreeWX-Wi 1.01,2013-07-20 09:52:00,
2013-07-20 06:02:00,75.4,55.9,-100.00,North,-999,0.0,0.0,51,0.00,,,-99.99,FreeWX-Wi 1.01,2013-07-20 10:02:00,
2013-07-20 06:11:00,75.4,55.9,-100.00,North,-999,0.0,0.0,51,0.00,,,-99.99,FreeWX-Wi 1.01,2013-07-20 10:11:00,
2013-07-20 06:21:00,75.4,56.5,-100.00,North,-999,0.0,0.0,52,0.00,,,-99.99,FreeWX-Wi 1.01,2013-07-20 10:21:00,
2013-07-20 06:31:00,75.6,56.7,-100.00,North,-999,0.0,0.0,52,0.00,,,-99.99,FreeWX-Wi 1.01,2013-07-20 10:31:00,
2013-07-20 06:42:00,75.7,56.8,-100.00,North,-999,0.0,0.0,52,0.00,,,-99.99,FreeWX-Wi 1.01,2013-07-20 10:42:00,
2013-07-20 06:52:00,75.9,57.6,-100.00,North,-999,0.0,0.0,53,0.00,,,-99.99,FreeWX-Wi 1.01,2013-07-20 10:52:00,
2013-07-20 07:02:00,76.3,57.9,-100.00,North,-999,0.0,0.0,53,0.00,,,-99.99,FreeWX-Wi 1.01,2013-07-20 11:02:00,
2013-07-20 07:12:00,76.6,57.7,-100.00,North,-999,0.0,0.0,52,0.00,,,-99.99,FreeWX-Wi 1.01,2013-07-20 11:12:00,
2013-07-20 07:22:00,77.0,57.4,-100.00,North,-999,0.0,0.0,51,0.00,,,-99.99,FreeWX-Wi 1.01,2013-07-20 11:22:00,
2013-07-20 07:31:00,77.2,57.6,-100.00,North,-999,0.0,0.0,51,0.00,,,-99.99,FreeWX-Wi 1.01,2013-07-20 11:31:00,
2013-07-20 07:42:00,77.4,57.2,-100.00,North,-999,0.0,0.0,50,0.00,,,-99.99,FreeWX-Wi 1.01,2013-07-20 11:42:00,
2013-07-20 07:52:00,77.9,57.2,-100.00,North,-999,0.0,0.0,49,0.00,,,-99.99,FreeWX-Wi 1.01,2013-07-20 11:52:00,
2013-07-20 08:01:00,78.3,57.6,-100.00,North,-999,0.0,0.0,49,0.00,,,-99.99,FreeWX-Wi 1.01,2013-07-20 12:01:00,
2013-07-20 08:12:00,78.6,57.2,-100.00,North,-999,0.0,0.0,48,0.00,,,-99.99,FreeWX-Wi 1.01,2013-07-20 12:12:00,
2013-07-20 08:22:00,78.8,56.8,-100.00,North,-999,0.0,0.0,47,0.00,,,-99.99,FreeWX-Wi 1.01,2013-07-20 12:22:00,
2013-07-20 08:32:00,80.1,57.9,-100.00,North,-999,0.0,0.0,47,0.00,,,-99.99,FreeWX-Wi 1.01,2013-07-20 12:32:00,
2013-07-20 08:41:00,81.5,58.1,-100.00,North,-999,0.0,0.0,45,0.00,,,-99.99,FreeWX-Wi 1.01,2013-07-20 12:41:00,
2013-07-20 08:52:00,82.9,58.1,-100.00,North,-999,0.0,0.0,43,0.00,,,-99.99,FreeWX-Wi 1.01,2013-07-20 12:52:00,
2013-07-20 09:02:00,83.5,56.7,-100.00,North,-999,0.0,0.0,40,0.00,,,-99.99,FreeWX-Wi 1.01,2013-07-20 13:02:00,
2013-07-20 09:11:00,84.9,55.0,-100.00,North,-999,0.0,0.0,36,0.00,,,-99.99,FreeWX-Wi 1.01,2013-07-20 13:11:00,
2013-07-20 09:22:00,84.2,53.6,-100.00,North,-999,0.0,0.0,35,0.00,,,-99.99,FreeWX-Wi 1.01,2013-07-20 13:22:00,
2013-07-20 09:31:00,84.2,52.7,-100.00,North,-999,0.0,0.0,34,0.00,,,-99.99,FreeWX-Wi 1.01,2013-07-20 13:31:00,
2013-07-20 09:41:00,85.6,54.0,-100.00,North,-999,0.0,0.0,34,0.00,,,-99.99,FreeWX-Wi 1.01,2013-07-20 13:41:00,
2013-07-20 09:52:00,86.2,53.6,-100.00,North,-999,0.0,0.0,33,0.00,,,-99.99,FreeWX-Wi 1.01,2013-07-20 13:52:00,
2013-07-20 10:02:00,86.9,53.4,-100.00,North,-999,0.0,0.0,32,0.00,,,-99.99,FreeWX-Wi 1.01,2013-07-20 14:02:00,
2013-07-20 10:12:00,86.7,53.2,-100.00,North,-999,0.0,0.0,32,0.00,,,-99.99,FreeWX-Wi 1.01,2013-07-20 14:12:00,
2013-07-20 10:22:00,86.7,53.2,-100.00,North,-999,0.0,0.0,32,0.00,,,-99.99,FreeWX-Wi 1.01,2013-07-20 14:22:00,
2013-07-20 10:31:00,87.4,52.2,-100.00,North,-999,0.0,0.0,30,0.00,,,-99.99,FreeWX-Wi 1.01,2013-07-20 14:31:00,
2013-07-20 10:42:00,87.3,52.0,-100.00,North,-999,0.0,0.0,30,0.00,,,-99.99,FreeWX-Wi 1.01,2013-07-20 14:42:00,
2013-07-20 11:03:00,87.1,51.8,-100.00,North,-999,0.0,0.0,30,0.00,,,-99.99,FreeWX-Wi 1.01,2013-07-20 15:03:00,
2013-07-20 11:13:00,87.8,49.6,-100.00,North,-999,0.0,0.0,27,0.00,,,-99.99,FreeWX-Wi 1.01,2013-07-20 15:13:00,
2013-07-20 11:23:00,87.6,47.5,-100.00,North,-999,0.0,0.0,25,0.00,,,-99.99,FreeWX-Wi 1.01,2013-07-20 15:23:00,
2013-07-20 11:33:00,87.3,49.1,-100.00,North,-999,0.0,0.0,27,0.00,,,-99.99,FreeWX-Wi 1.01,2013-07-20 15:33:00,
2013-07-20 11:43:00,88.0,49.8,-100.00,North,-999,0.0,0.0,27,0.00,,,-99.99,FreeWX-Wi 1.01,2013-07-20 15:43:00,
2013-07-20 11:52:00,87.8,54.1,-100.00,North,-999,0.0,0.0,32,0.00,,,-99.99,FreeWX-Wi 1.01,2013-07-20 15:52:00,
2013-07-20 12:03:00,83.5,59.2,-100.00,North,-999,0.0,0.0,44,0.00,,,-99.99,FreeWX-Wi 1.01,2013-07-20 16:03:00,
2013-07-20 12:13:00,83.5,55.2,-100.00,North,-999,0.0,0.0,38,0.00,,,-99.99,FreeWX-Wi 1.01,2013-07-20 16:13:00,
2013-07-20 12:23:00,84.4,54.5,-100.00,North,-999,0.0,0.0,36,0.00,,,-99.99,FreeWX-Wi 1.01,2013-07-20 16:23:00,
2013-07-20 12:32:00,84.9,53.4,-100.00,North,-999,0.0,0.0,34,0.00,,,-99.99,FreeWX-Wi 1.01,2013-07-20 16:32:00,
2013-07-20 12:43:00,85.1,52.7,-100.00,North,-999,0.0,0.0,33,0.00,,,-99.99,FreeWX-Wi 1.01,2013-07-20 16:43:00,
2013-07-20 12:55:00,86.0,52.7,-100.00,North,-999,0.0,0.0,32,0.00,,,-99.99,FreeWX-Wi 1.01,2013-07-20 16:55:00,
2013-07-20 13:05:00,86.4,48.4,-100.00,North,-999,0.0,0.0,27,0.00,,,-99.99,FreeWX-Wi 1.01,2013-07-20 17:05:00,
2013-07-20 13:14:00,86.7,48.7,-100.00,North,-999,0.0,0.0,27,0.00,,,-99.99,FreeWX-Wi 1.01,2013-07-20 17:14:00,
2013-07-20 13:24:00,86.7,46.6,-100.00,North,-999,0.0,0.0,25,0.00,,,-99.99,FreeWX-Wi 1.01,2013-07-20 17:24:00,
2013-07-20 13:34:00,86.7,46.6,-100.00,North,-999,0.0,0.0,25,0.00,,,-99.99,FreeWX-Wi 1.01,2013-07-20 17:34:00,
2013-07-20 13:45:00,87.1,46.9,-100.00,North,-999,0.0,0.0,25,0.00,,,-99.99,FreeWX-Wi 1.01,2013-07-20 17:45:00,
2013-07-20 13:56:00,87.8,44.2,-100.00,North,-999,0.0,0.0,22,0.00,,,-99.99,FreeWX-Wi 1.01,2013-07-20 17:56:00,
2013-07-20 14:06:00,88.2,44.4,-100.00,North,-999,0.0,0.0,22,0.00,,,-99.99,FreeWX-Wi 1.01,2013-07-20 18:06:00,
2013-07-20 14:17:00,88.3,44.6,-100.00,North,-999,0.0,0.0,22,0.00,,,-99.99,FreeWX-Wi 1.01,2013-07-20 18:17:00,
2013-07-20 14:27:00,88.3,44.6,-100.00,North,-999,0.0,0.0,22,0.00,,,-99.99,FreeWX-Wi 1.01,2013-07-20 18:27:00,
2013-07-20 14:36:00,88.5,44.8,-100.00,North,-999,0.0,0.0,22,0.00,,,-99.99,FreeWX-Wi 1.01,2013-07-20 18:36:00,
2013-07-20 14:47:00,88.3,44.6,-100.00,North,-999,0.0,0.0,22,0.00,,,-99.99,FreeWX-Wi 1.01,2013-07-20 18:47:00,
2013-07-20 14:57:00,88.5,44.8,-100.00,North,-999,0.0,0.0,22,0.00,,,-99.99,FreeWX-Wi 1.01,2013-07-20 18:57:00,
2013-07-20 15:07:00,88.5,44.8,-100.00,North,-999,0.0,0.0,22,0.00,,,-99.99,FreeWX-Wi 1.01,2013-07-20 19:07:00,
2013-07-20 15:27:00,86.4,43.0,-100.00,North,-999,0.0,0.0,22,0.00,,,-99.99,FreeWX-Wi 1.01,2013-07-20 19:27:00,
2013-07-20 15:36:00,85.6,43.5,-100.00,North,-999,0.0,0.0,23,0.00,,,-99.99,FreeWX-Wi 1.01,2013-07-20 19:36:00,
2013-07-20 15:47:00,84.9,43.0,-100.00,North,-999,0.0,0.0,23,0.00,,,-99.99,FreeWX-Wi 1.01,2013-07-20 19:47:00,
2013-07-20 15:57:00,84.4,42.4,-100.00,North,-999,0.0,0.0,23,0.00,,,-99.99,FreeWX-Wi 1.01,2013-07-20 19:57:00,
2013-07-20 16:07:00,83.7,41.9,-100.00,North,-999,0.0,0.0,23,0.00,,,-99.99,FreeWX-Wi 1.01,2013-07-20 20:07:00,
2013-07-20 16:17:00,83.1,41.5,-100.00,North,-999,0.0,0.0,23,0.00,,,-99.99,FreeWX-Wi 1.01,2013-07-20 20:17:00,
2013-07-20 16:27:00,82.9,44.4,-100.00,North,-999,0.0,0.0,26,0.00,,,-99.99,FreeWX-Wi 1.01,2013-07-20 20:27:00,
2013-07-20 16:46:00,83.1,44.6,-100.00,North,-999,0.0,0.0,26,0.00,,,-99.99,FreeWX-Wi 1.01,2013-07-20 20:46:00,
2013-07-20 16:57:00,83.1,44.6,-100.00,North,-999,0.0,0.0,26,0.00,,,-99.99,FreeWX-Wi 1.01,2013-07-20 20:57:00,
2013-07-20 17:07:00,83.3,44.8,-100.00,North,-999,0.0,0.0,26,0.00,,,-99.99,FreeWX-Wi 1.01,2013-07-20 21:07:00,
2013-07-20 17:16:00,83.5,45.0,-100.00,North,-999,0.0,0.0,26,0.00,,,-99.99,FreeWX-Wi 1.01,2013-07-20 21:16:00,
2013-07-20 17:27:00,83.5,45.0,-100.00,North,-999,0.0,0.0,26,0.00,,,-99.99,FreeWX-Wi 1.01,2013-07-20 21:27:00,
2013-07-20 17:37:00,83.5,45.0,-100.00,North,-999,0.0,0.0,26,0.00,,,-99.99,FreeWX-Wi 1.01,2013-07-20 21:37:00,
2013-07-20 18:07:00,82.9,41.4,-100.00,North,-999,0.0,0.0,23,0.00,,,-99.99,FreeWX-Wi 1.01,2013-07-20 22:07:00,
2013-07-20 18:16:00,82.8,44.4,-100.00,North,-999,0.0,0.0,26,0.00,,,-99.99,FreeWX-Wi 1.01,2013-07-20 22:16:00,
2013-07-20 18:26:00,82.8,44.4,-100.00,North,-999,0.0,0.0,26,0.00,,,-99.99,FreeWX-Wi 1.01,2013-07-20 22:26:00,
2013-07-20 18:37:00,82.6,44.2,-100.00,North,-999,0.0,0.0,26,0.00,,,-99.99,FreeWX-Wi 1.01,2013-07-20 22:37:00,
2013-07-20 18:46:00,82.2,43.9,-100.00,North,-999,0.0,0.0,26,0.00,,,-99.99,FreeWX-Wi 1.01,2013-07-20 22:46:00,
2013-07-20 19:06:00,81.7,43.5,-100.00,North,-999,0.0,0.0,26,0.00,,,-99.99,FreeWX-Wi 1.01,2013-07-20 23:06:00,
2013-07-20 19:17:00,81.3,43.2,-100.00,North,-999,0.0,0.0,26,0.00,,,-99.99,FreeWX-Wi 1.01,2013-07-20 23:17:00,
2013-07-20 19:26:00,81.0,44.8,-100.00,North,-999,0.0,0.0,28,0.00,,,-99.99,FreeWX-Wi 1.01,2013-07-20 23:26:00,
2013-07-20 19:47:00,80.6,44.4,-100.00,North,-999,0.0,0.0,28,0.00,,,-99.99,FreeWX-Wi 1.01,2013-07-20 23:47:00,
2013-07-20 19:57:00,80.4,45.1,-100.00,North,-999,0.0,0.0,29,0.00,,,-99.99,FreeWX-Wi 1.01,2013-07-20 23:57:00,
2013-07-20 20:17:00,79.9,44.8,-100.00,North,-999,0.0,0.0,29,0.00,,,-99.99,FreeWX-Wi 1.01,2013-07-21 00:17:00,
2013-07-20 20:26:00,79.5,46.2,-100.00,North,-999,0.0,0.0,31,0.00,,,-99.99,FreeWX-Wi 1.01,2013-07-21 00:26:00,
2013-07-20 20:37:00,79.2,45.9,-100.00,North,-999,0.0,0.0,31,0.00,,,-99.99,FreeWX-Wi 1.01,2013-07-21 00:37:00,
2013-07-20 20:46:00,79.0,45.7,-100.00,North,-999,0.0,0.0,31,0.00,,,-99.99,FreeWX-Wi 1.01,2013-07-21 00:46:00,
2013-07-20 20:56:00,78.8,45.5,-100.00,North,-999,0.0,0.0,31,0.00,,,-99.99,FreeWX-Wi 1.01,2013-07-21 00:56:00,
2013-07-20 21:07:00,78.6,46.2,-100.00,North,-999,0.0,0.0,32,0.00,,,-99.99,FreeWX-Wi 1.01,2013-07-21 01:07:00,
2013-07-20 21:16:00,78.4,43.5,-100.00,North,-999,0.0,0.0,29,0.00,,,-99.99,FreeWX-Wi 1.01,2013-07-21 01:16:00,
2013-07-20 21:28:00,78.3,43.3,-100.00,North,-999,0.0,0.0,29,0.00,,,-99.99,FreeWX-Wi 1.01,2013-07-21 01:28:00,
2013-07-20 21:39:00,78.1,43.2,-100.00,North,-999,0.0,0.0,29,0.00,,,-99.99,FreeWX-Wi 1.01,2013-07-21 01:39:00,
2013-07-20 21:49:00,77.5,42.8,-100.00,North,-999,0.0,0.0,29,0.00,,,-99.99,FreeWX-Wi 1.01,2013-07-21 01:49:00,
2013-07-20 21:59:00,77.2,42.4,-100.00,North,-999,0.0,0.0,29,0.00,,,-99.99,FreeWX-Wi 1.01,2013-07-21 01:59:00,
2013-07-20 22:09:00,76.8,44.8,-100.00,North,-999,0.0,0.0,32,0.00,,,-99.99,FreeWX-Wi 1.01,2013-07-21 02:09:00,
2013-07-20 22:29:00,75.9,43.9,-100.00,North,-999,0.0,0.0,32,0.00,,,-99.99,FreeWX-Wi 1.01,2013-07-21 02:29:00,
2013-07-20 22:38:00,75.7,43.7,-100.00,North,-999,0.0,0.0,32,0.00,,,-99.99,FreeWX-Wi 1.01,2013-07-21 02:38:00,
2013-07-20 23:08:00,74.8,45.3,-100.00,North,-999,0.0,0.0,35,0.00,,,-99.99,FreeWX-Wi 1.01,2013-07-21 03:08:00,
2013-07-20 23:19:00,74.3,44.8,-100.00,North,-999,0.0,0.0,35,0.00,,,-99.99,FreeWX-Wi 1.01,2013-07-21 03:19:00,
2013-07-20 23:28:00,73.9,44.6,-100.00,North,-999,0.0,0.0,35,0.00,,,-99.99,FreeWX-Wi 1.01,2013-07-21 03:28:00,
2013-07-20 23:41:00,73.4,44.1,-100.00,North,-999,0.0,0.0,35,0.00,,,-99.99,FreeWX-Wi 1.01,2013-07-21 03:41:00,
2013-07-20 23:51:00,73.0,43.7,-100.00,North,-999,0.0,0.0,35,0.00,,,-99.99,FreeWX-Wi 1.01,2013-07-21 03:51:00,